owner,sensor,date,latitude,longitude,vertical_datum,wind_speed,wind_to_direction,wind_speed_of_gust,qcFlag 
LUMCON,ioos:station:LUMCON:101:1,2011-07-01T00:00:00Z,29.2533,-90.6633,1.0,4.1,210.0,,'1111122,1111122,1111122' 
LUMCON,ioos:station:LUMCON:101:1,2011-07-01T01:00:00Z,29.2533,-90.6633,1.0,3.6,210.0,,'1111122,1111122,1111122' 
LUMCON,ioos:station:LUMCON:101:1,2011-07-01T02:00:00Z,29.2533,-90.6633,1.0,3.6,210.0,,'1111122,1111122,1111122' 
LUMCON,ioos:station:LUMCON:101:1,2011-07-01T03:00:00Z,29.2533,-90.6633,1.0,2.1,230.0,,'1111122,1111122,1111122' 
LUMCON,ioos:station:LUMCON:101:1,2011-07-01T04:00:00Z,29.2533,-90.6633,1.0,2.6,230.0,,'1111122,1111122,1111122' 
LUMCON,ioos:station:LUMCON:101:1,2011-07-01T05:00:00Z,29.2533,-90.6633,1.0,3.1,220.0,,'1111122,1111122,1111122' 
LUMCON,ioos:station:LUMCON:101:1,2011-07-01T06:00:00Z,29.2533,-90.6633,1.0,2.1,220.0,,'1111122,1111122,1111122' 
LUMCON,ioos:station:LUMCON:101:1,2011-07-01T07:00:00Z,29.2533,-90.6633,1.0,2.6,240.0,,'1111122,1111122,1111122' 
LUMCON,ioos:station:LUMCON:101:1,2011-07-01T08:00:00Z,29.2533,-90.6633,1.0,2.1,250.0,,'1111122,1111122,1111122' 
LUMCON,ioos:station:LUMCON:101:1,2011-07-01T09:00:00Z,29.2533,-90.6633,1.0,2.6,250.0,,'1111122,1111122,1111122' 
LUMCON,ioos:station:LUMCON:101:1,2011-07-01T10:00:00Z,29.2533,-90.6633,1.0,1.5,290.0,,'1111122,1111122,1111122' 
LUMCON,ioos:station:LUMCON:101:1,2011-07-01T11:00:00Z,29.2533,-90.6633,1.0,2.1,280.0,,'1111122,1111122,1111122' 
LUMCON,ioos:station:LUMCON:101:1,2011-07-01T12:00:00Z,29.2533,-90.6633,1.0,1.5,300.0,,'1111122,1111122,1111122' 
LUMCON,ioos:station:LUMCON:101:1,2011-07-01T13:00:00Z,29.2533,-90.6633,1.0,2.1,330.0,,'1111122,1111122,1111122' 
LUMCON,ioos:station:LUMCON:101:1,2011-07-01T14:00:00Z,29.2533,-90.6633,1.0,3.1,330.0,,'1111122,1111122,1111122' 
LUMCON,ioos:station:LUMCON:101:1,2011-07-01T15:00:00Z,29.2533,-90.6633,1.0,5.1,350.0,,'1111122,1111122,1111122' 
LUMCON,ioos:station:LUMCON:101:1,2011-07-01T16:00:00Z,29.2533,-90.6633,1.0,4.6,350.0,,'1111122,1111122,1111122' 
LUMCON,ioos:station:LUMCON:101:1,2011-07-01T17:00:00Z,29.2533,-90.6633,1.0,1.5,360.0,,'1111122,1111122,1111122' 
LUMCON,ioos:station:LUMCON:101:1,2011-07-01T18:00:00Z,29.2533,-90.6633,1.0,1.5,250.0,,'1111122,1111122,1111122' 
LUMCON,ioos:station:LUMCON:101:1,2011-07-01T19:00:00Z,29.2533,-90.6633,1.0,2.1,170.0,,'1111122,1111122,1111122' 
LUMCON,ioos:station:LUMCON:101:1,2011-07-01T20:00:00Z,29.2533,-90.6633,1.0,4.1,190.0,,'1111122,1111122,1111122' 
LUMCON,ioos:station:LUMCON:101:1,2011-07-01T21:00:00Z,29.2533,-90.6633,1.0,4.6,200.0,,'1111122,1111122,1111122' 
LUMCON,ioos:station:LUMCON:101:1,2011-07-01T22:00:00Z,29.2533,-90.6633,1.0,4.1,200.0,,'1111122,1111122,1111122' 
LUMCON,ioos:station:LUMCON:101:1,2011-07-01T23:00:00Z,29.2533,-90.6633,1.0,5.1,210.0,,'1111122,1111122,1111122' 
LUMCON,ioos:station:LUMCON:101:1,2011-07-02T00:00:00Z,29.2533,-90.6633,1.0,5.1,220.0,,'1111122,1111122,1111122' 
LUMCON,ioos:station:LUMCON:101:1,2011-07-02T01:00:00Z,29.2533,-90.6633,1.0,2.6,240.0,,'1111122,1111122,1111122' 
LUMCON,ioos:station:LUMCON:101:1,2011-07-02T02:00:00Z,29.2533,-90.6633,1.0,2.6,230.0,,'1111122,1111122,1111122' 
LUMCON,ioos:station:LUMCON:101:1,2011-07-02T03:00:00Z,29.2533,-90.6633,1.0,3.1,240.0,,'1111122,1111122,1111122' 
LUMCON,ioos:station:LUMCON:101:1,2011-07-02T04:00:00Z,29.2533,-90.6633,1.0,2.6,240.0,,'1111122,1111122,1111122' 
LUMCON,ioos:station:LUMCON:101:1,2011-07-02T05:00:00Z,29.2533,-90.6633,1.0,2.1,250.0,,'1111122,1111122,1111122' 
LUMCON,ioos:station:LUMCON:101:1,2011-07-02T06:00:00Z,29.2533,-90.6633,1.0,2.6,240.0,,'1111122,1111122,1111122' 
LUMCON,ioos:station:LUMCON:101:1,2011-07-02T07:00:00Z,29.2533,-90.6633,1.0,2.1,250.0,,'1111122,1111122,1111122' 
LUMCON,ioos:station:LUMCON:101:1,2011-07-02T08:00:00Z,29.2533,-90.6633,1.0,2.1,280.0,,'1111122,1111122,1111122' 
LUMCON,ioos:station:LUMCON:101:1,2011-07-02T09:00:00Z,29.2533,-90.6633,1.0,2.1,290.0,,'1111122,1111122,1111122' 
LUMCON,ioos:station:LUMCON:101:1,2011-07-02T10:00:00Z,29.2533,-90.6633,1.0,2.1,310.0,,'1111122,1111122,1111122' 
LUMCON,ioos:station:LUMCON:101:1,2011-07-02T11:00:00Z,29.2533,-90.6633,1.0,2.6,320.0,,'1111122,1111122,1111122' 
LUMCON,ioos:station:LUMCON:101:1,2011-07-02T12:00:00Z,29.2533,-90.6633,1.0,3.1,330.0,,'1111122,1111122,1111122' 
LUMCON,ioos:station:LUMCON:101:1,2011-07-02T13:00:00Z,29.2533,-90.6633,1.0,3.6,340.0,,'1111122,1111122,1111122' 
LUMCON,ioos:station:LUMCON:101:1,2011-07-02T14:00:00Z,29.2533,-90.6633,1.0,3.6,330.0,,'1111122,1111122,1111122' 
LUMCON,ioos:station:LUMCON:101:1,2011-07-02T15:00:00Z,29.2533,-90.6633,1.0,4.1,330.0,,'1111122,1111122,1111122' 
LUMCON,ioos:station:LUMCON:101:1,2011-07-02T16:00:00Z,29.2533,-90.6633,1.0,3.6,330.0,,'1111122,1111122,1111122' 
LUMCON,ioos:station:LUMCON:101:1,2011-07-02T17:00:00Z,29.2533,-90.6633,1.0,2.6,300.0,,'1111122,1111122,1111122' 
LUMCON,ioos:station:LUMCON:101:1,2011-07-02T18:00:00Z,29.2533,-90.6633,1.0,1.5,320.0,,'1111122,1111122,1111122' 
LUMCON,ioos:station:LUMCON:101:1,2011-07-02T19:00:00Z,29.2533,-90.6633,1.0,3.6,150.0,,'1111122,1111122,1111122' 
LUMCON,ioos:station:LUMCON:101:1,2011-07-02T20:00:00Z,29.2533,-90.6633,1.0,4.1,190.0,,'1111122,1111122,1111122' 
LUMCON,ioos:station:LUMCON:101:1,2011-07-02T21:00:00Z,29.2533,-90.6633,1.0,3.1,310.0,,'1111122,1111122,1111122' 
LUMCON,ioos:station:LUMCON:101:1,2011-07-02T23:00:00Z,29.2533,-90.6633,1.0,3.1,240.0,,'1111122,1111122,1111122' 
LUMCON,ioos:station:LUMCON:101:1,2011-07-03T00:00:00Z,29.2533,-90.6633,1.0,2.1,220.0,,'1111122,1111122,1111122' 
LUMCON,ioos:station:LUMCON:101:1,2011-07-03T01:00:00Z,29.2533,-90.6633,1.0,0.0,80.0,1.0,'11111222,11111222,11111222' 
LUMCON,ioos:station:LUMCON:101:1,2011-07-03T02:00:00Z,29.2533,-90.6633,1.0,2.1,300.0,,'1111122,1111122,1111122' 
LUMCON,ioos:station:LUMCON:101:1,2011-07-03T03:00:00Z,29.2533,-90.6633,1.0,0.5,310.0,,'1111122,1111122,1111122' 
LUMCON,ioos:station:LUMCON:101:1,2011-07-03T04:00:00Z,29.2533,-90.6633,1.0,0.0,50.0,0.5,'11111222,11111222,11111222' 
LUMCON,ioos:station:LUMCON:101:1,2011-07-03T05:00:00Z,29.2533,-90.6633,1.0,0.5,270.0,,'1111122,1111122,1111122' 
LUMCON,ioos:station:LUMCON:101:1,2011-07-03T06:00:00Z,29.2533,-90.6633,1.0,1.0,240.0,,'1111122,1111122,1111122' 
LUMCON,ioos:station:LUMCON:101:1,2011-07-03T07:00:00Z,29.2533,-90.6633,1.0,1.0,190.0,,'1111122,1111122,1111122' 
LUMCON,ioos:station:LUMCON:101:1,2011-07-03T08:00:00Z,29.2533,-90.6633,1.0,1.0,240.0,,'1111122,1111122,1111122' 
LUMCON,ioos:station:LUMCON:101:1,2011-07-03T09:00:00Z,29.2533,-90.6633,1.0,1.0,230.0,,'1111122,1111122,1111122' 
LUMCON,ioos:station:LUMCON:101:1,2011-07-03T10:00:00Z,29.2533,-90.6633,1.0,0.5,270.0,,'1111122,1111122,1111122' 
LUMCON,ioos:station:LUMCON:101:1,2011-07-03T11:00:00Z,29.2533,-90.6633,1.0,1.0,320.0,,'1111122,1111122,1111122' 
LUMCON,ioos:station:LUMCON:101:1,2011-07-03T12:00:00Z,29.2533,-90.6633,1.0,1.5,340.0,,'1111122,1111122,1111122' 
LUMCON,ioos:station:LUMCON:101:1,2011-07-03T13:00:00Z,29.2533,-90.6633,1.0,3.1,340.0,,'1111122,1111122,1111122' 
LUMCON,ioos:station:LUMCON:101:1,2011-07-03T14:00:00Z,29.2533,-90.6633,1.0,3.6,340.0,,'1111122,1111122,1111122' 
LUMCON,ioos:station:LUMCON:101:1,2011-07-03T15:00:00Z,29.2533,-90.6633,1.0,5.7,50.0,,'1111122,1111122,1111122' 
LUMCON,ioos:station:LUMCON:101:1,2011-07-03T16:00:00Z,29.2533,-90.6633,1.0,2.6,350.0,,'1111122,1111122,1111122' 
LUMCON,ioos:station:LUMCON:101:1,2011-07-03T17:00:00Z,29.2533,-90.6633,1.0,3.1,150.0,,'1111122,1111122,1111122' 
LUMCON,ioos:station:LUMCON:101:1,2011-07-03T18:00:00Z,29.2533,-90.6633,1.0,4.1,140.0,,'1111122,1111122,1111122' 
LUMCON,ioos:station:LUMCON:101:1,2011-07-03T19:00:00Z,29.2533,-90.6633,1.0,4.1,150.0,,'1111122,1111122,1111122' 
LUMCON,ioos:station:LUMCON:101:1,2011-07-03T20:00:00Z,29.2533,-90.6633,1.0,4.1,170.0,,'1111122,1111122,1111122' 
LUMCON,ioos:station:LUMCON:101:1,2011-07-03T21:00:00Z,29.2533,-90.6633,1.0,4.1,160.0,,'1111122,1111122,1111122' 
LUMCON,ioos:station:LUMCON:101:1,2011-07-03T22:00:00Z,29.2533,-90.6633,1.0,5.1,160.0,,'1111122,1111122,1111122' 
LUMCON,ioos:station:LUMCON:101:1,2011-07-03T23:00:00Z,29.2533,-90.6633,1.0,2.6,180.0,,'1111122,1111122,1111122' 
LUMCON,ioos:station:LUMCON:101:1,2011-07-04T00:00:00Z,29.2533,-90.6633,1.0,2.6,170.0,,'1111122,1111122,1111122' 
LUMCON,ioos:station:LUMCON:101:1,2011-07-04T01:00:00Z,29.2533,-90.6633,1.0,2.1,180.0,,'1111122,1111122,1111122' 
LUMCON,ioos:station:LUMCON:101:1,2011-07-04T02:00:00Z,29.2533,-90.6633,1.0,2.6,160.0,,'1111122,1111122,1111122' 
LUMCON,ioos:station:LUMCON:101:1,2011-07-04T03:00:00Z,29.2533,-90.6633,1.0,1.0,180.0,,'1111122,1111122,1111122' 
LUMCON,ioos:station:LUMCON:101:1,2011-07-04T04:00:00Z,29.2533,-90.6633,1.0,2.1,130.0,,'1111122,1111122,1111122' 
LUMCON,ioos:station:LUMCON:101:1,2011-07-04T05:00:00Z,29.2533,-90.6633,1.0,1.0,140.0,,'1111122,1111122,1111122' 
LUMCON,ioos:station:LUMCON:101:1,2011-07-04T06:00:00Z,29.2533,-90.6633,1.0,0.5,160.0,,'1111122,1111122,1111122' 
LUMCON,ioos:station:LUMCON:101:1,2011-07-04T07:00:00Z,29.2533,-90.6633,1.0,0.0,100.0,0.5,'11111222,11111222,11111222' 
LUMCON,ioos:station:LUMCON:101:1,2011-07-04T08:00:00Z,29.2533,-90.6633,1.0,1.0,50.0,,'1111122,1111122,1111122' 
LUMCON,ioos:station:LUMCON:101:1,2011-07-04T09:00:00Z,29.2533,-90.6633,1.0,1.5,10.0,,'1111122,1111122,1111122' 
LUMCON,ioos:station:LUMCON:101:1,2011-07-04T10:00:00Z,29.2533,-90.6633,1.0,1.5,170.0,,'1111122,1111122,1111122' 
LUMCON,ioos:station:LUMCON:101:1,2011-07-04T11:00:00Z,29.2533,-90.6633,1.0,1.5,180.0,,'1111122,1111122,1111122' 
LUMCON,ioos:station:LUMCON:101:1,2011-07-04T12:00:00Z,29.2533,-90.6633,1.0,2.1,260.0,,'1111122,1111122,1111122' 
LUMCON,ioos:station:LUMCON:101:1,2011-07-04T13:00:00Z,29.2533,-90.6633,1.0,1.0,30.0,,'1111122,1111122,1111122' 
LUMCON,ioos:station:LUMCON:101:1,2011-07-04T14:00:00Z,29.2533,-90.6633,1.0,1.0,130.0,,'1111122,1111122,1111122' 
LUMCON,ioos:station:LUMCON:101:1,2011-07-04T15:00:00Z,29.2533,-90.6633,1.0,3.1,10.0,,'1111122,1111122,1111122' 
LUMCON,ioos:station:LUMCON:101:1,2011-07-04T16:00:00Z,29.2533,-90.6633,1.0,2.1,50.0,,'1111122,1111122,1111122' 
LUMCON,ioos:station:LUMCON:101:1,2011-07-04T17:00:00Z,29.2533,-90.6633,1.0,2.6,120.0,,'1111122,1111122,1111122' 
LUMCON,ioos:station:LUMCON:101:1,2011-07-04T18:00:00Z,29.2533,-90.6633,1.0,3.1,110.0,,'1111122,1111122,1111122' 
LUMCON,ioos:station:LUMCON:101:1,2011-07-04T19:00:00Z,29.2533,-90.6633,1.0,4.6,120.0,,'1111122,1111122,1111122' 
LUMCON,ioos:station:LUMCON:101:1,2011-07-04T20:00:00Z,29.2533,-90.6633,1.0,3.6,120.0,,'1111122,1111122,1111122' 
LUMCON,ioos:station:LUMCON:101:1,2011-07-04T21:00:00Z,29.2533,-90.6633,1.0,5.1,130.0,,'1111122,1111122,1111122' 
LUMCON,ioos:station:LUMCON:101:1,2011-07-04T22:00:00Z,29.2533,-90.6633,1.0,4.6,140.0,,'1111122,1111122,1111122' 
LUMCON,ioos:station:LUMCON:101:1,2011-07-04T23:00:00Z,29.2533,-90.6633,1.0,3.1,130.0,,'1111122,1111122,1111122' 
LUMCON,ioos:station:LUMCON:101:1,2011-07-05T00:00:00Z,29.2533,-90.6633,1.0,4.1,140.0,,'1111122,1111122,1111122' 
LUMCON,ioos:station:LUMCON:101:1,2011-07-05T01:00:00Z,29.2533,-90.6633,1.0,3.6,140.0,,'1111122,1111122,1111122' 
LUMCON,ioos:station:LUMCON:101:1,2011-07-05T02:00:00Z,29.2533,-90.6633,1.0,3.1,150.0,,'1111122,1111122,1111122' 
LUMCON,ioos:station:LUMCON:101:1,2011-07-05T03:00:00Z,29.2533,-90.6633,1.0,3.1,150.0,,'1111122,1111122,1111122' 
LUMCON,ioos:station:LUMCON:101:1,2011-07-05T04:00:00Z,29.2533,-90.6633,1.0,2.6,160.0,,'1111122,1111122,1111122' 
LUMCON,ioos:station:LUMCON:101:1,2011-07-05T05:00:00Z,29.2533,-90.6633,1.0,2.6,140.0,,'1111122,1111122,1111122' 
LUMCON,ioos:station:LUMCON:101:1,2011-07-05T06:00:00Z,29.2533,-90.6633,1.0,3.1,160.0,,'1111122,1111122,1111122' 
LUMCON,ioos:station:LUMCON:101:1,2011-07-05T07:00:00Z,29.2533,-90.6633,1.0,1.5,180.0,,'1111122,1111122,1111122' 
LUMCON,ioos:station:LUMCON:101:1,2011-07-05T08:00:00Z,29.2533,-90.6633,1.0,1.5,190.0,,'1111122,1111122,1111122' 
LUMCON,ioos:station:LUMCON:101:1,2011-07-05T09:00:00Z,29.2533,-90.6633,1.0,1.5,190.0,,'1111122,1111122,1111122' 
LUMCON,ioos:station:LUMCON:101:1,2011-07-05T10:00:00Z,29.2533,-90.6633,1.0,2.6,210.0,,'1111122,1111122,1111122' 
LUMCON,ioos:station:LUMCON:101:1,2011-07-05T11:00:00Z,29.2533,-90.6633,1.0,1.5,180.0,,'1111122,1111122,1111122' 
LUMCON,ioos:station:LUMCON:101:1,2011-07-05T12:00:00Z,29.2533,-90.6633,1.0,2.1,170.0,,'1111122,1111122,1111122' 
LUMCON,ioos:station:LUMCON:101:1,2011-07-05T13:00:00Z,29.2533,-90.6633,1.0,1.0,190.0,,'1111122,1111122,1111122' 
LUMCON,ioos:station:LUMCON:101:1,2011-07-05T14:00:00Z,29.2533,-90.6633,1.0,1.5,140.0,,'1111122,1111122,1111122' 
LUMCON,ioos:station:LUMCON:101:1,2011-07-05T15:00:00Z,29.2533,-90.6633,1.0,2.1,140.0,,'1111122,1111122,1111122' 
LUMCON,ioos:station:LUMCON:101:1,2011-07-05T16:00:00Z,29.2533,-90.6633,1.0,2.6,150.0,,'1111122,1111122,1111122' 
LUMCON,ioos:station:LUMCON:101:1,2011-07-05T17:00:00Z,29.2533,-90.6633,1.0,3.1,150.0,,'1111122,1111122,1111122' 
LUMCON,ioos:station:LUMCON:101:1,2011-07-05T18:00:00Z,29.2533,-90.6633,1.0,2.6,160.0,,'1111122,1111122,1111122' 
LUMCON,ioos:station:LUMCON:101:1,2011-07-05T19:00:00Z,29.2533,-90.6633,1.0,4.1,150.0,,'1111122,1111122,1111122' 
LUMCON,ioos:station:LUMCON:101:1,2011-07-05T20:00:00Z,29.2533,-90.6633,1.0,3.6,150.0,,'1111122,1111122,1111122' 
LUMCON,ioos:station:LUMCON:101:1,2011-07-05T21:00:00Z,29.2533,-90.6633,1.0,2.6,190.0,,'1111122,1111122,1111122' 
LUMCON,ioos:station:LUMCON:101:1,2011-07-05T22:00:00Z,29.2533,-90.6633,1.0,2.1,180.0,,'1111122,1111122,1111122' 
LUMCON,ioos:station:LUMCON:101:1,2011-07-05T23:00:00Z,29.2533,-90.6633,1.0,2.6,180.0,,'1111122,1111122,1111122' 
LUMCON,ioos:station:LUMCON:101:1,2011-07-06T01:00:00Z,29.2533,-90.6633,1.0,2.6,160.0,,'1111122,1111122,1111122' 
LUMCON,ioos:station:LUMCON:101:1,2011-07-06T02:00:00Z,29.2533,-90.6633,1.0,2.6,130.0,,'1111122,1111122,1111122' 
LUMCON,ioos:station:LUMCON:101:1,2011-07-06T03:00:00Z,29.2533,-90.6633,1.0,3.1,180.0,,'1111122,1111122,1111122' 
LUMCON,ioos:station:LUMCON:101:1,2011-07-06T04:00:00Z,29.2533,-90.6633,1.0,2.6,180.0,,'1111122,1111122,1111122' 
LUMCON,ioos:station:LUMCON:101:1,2011-07-06T05:00:00Z,29.2533,-90.6633,1.0,2.1,200.0,,'1111122,1111122,1111122' 
LUMCON,ioos:station:LUMCON:101:1,2011-07-06T06:00:00Z,29.2533,-90.6633,1.0,2.1,210.0,,'1111122,1111122,1111122' 
LUMCON,ioos:station:LUMCON:101:1,2011-07-06T07:00:00Z,29.2533,-90.6633,1.0,2.1,200.0,,'1111122,1111122,1111122' 
LUMCON,ioos:station:LUMCON:101:1,2011-07-06T08:00:00Z,29.2533,-90.6633,1.0,1.5,210.0,,'1111122,1111122,1111122' 
LUMCON,ioos:station:LUMCON:101:1,2011-07-06T09:00:00Z,29.2533,-90.6633,1.0,0.0,230.0,0.5,'11111222,11111222,11111222' 
LUMCON,ioos:station:LUMCON:101:1,2011-07-06T10:00:00Z,29.2533,-90.6633,1.0,1.5,40.0,,'1111122,1111122,1111122' 
LUMCON,ioos:station:LUMCON:101:1,2011-07-06T11:00:00Z,29.2533,-90.6633,1.0,2.6,30.0,,'1111122,1111122,1111122' 
LUMCON,ioos:station:LUMCON:101:1,2011-07-06T12:00:00Z,29.2533,-90.6633,1.0,2.1,190.0,,'1111122,1111122,1111122' 
LUMCON,ioos:station:LUMCON:101:1,2011-07-06T13:00:00Z,29.2533,-90.6633,1.0,1.0,70.0,,'1111122,1111122,1111122' 
LUMCON,ioos:station:LUMCON:101:1,2011-07-06T14:00:00Z,29.2533,-90.6633,1.0,1.5,80.0,,'1111122,1111122,1111122' 
LUMCON,ioos:station:LUMCON:101:1,2011-07-06T15:00:00Z,29.2533,-90.6633,1.0,1.5,130.0,,'1111122,1111122,1111122' 
LUMCON,ioos:station:LUMCON:101:1,2011-07-06T16:00:00Z,29.2533,-90.6633,1.0,2.1,140.0,,'1111122,1111122,1111122' 
LUMCON,ioos:station:LUMCON:101:1,2011-07-06T17:00:00Z,29.2533,-90.6633,1.0,3.6,140.0,,'1111122,1111122,1111122' 
LUMCON,ioos:station:LUMCON:101:1,2011-07-06T18:00:00Z,29.2533,-90.6633,1.0,3.1,140.0,,'1111122,1111122,1111122' 
LUMCON,ioos:station:LUMCON:101:1,2011-07-06T19:00:00Z,29.2533,-90.6633,1.0,2.6,140.0,,'1111122,1111122,1111122' 
LUMCON,ioos:station:LUMCON:101:1,2011-07-06T20:00:00Z,29.2533,-90.6633,1.0,3.6,150.0,,'1111122,1111122,1111122' 
LUMCON,ioos:station:LUMCON:101:1,2011-07-06T21:00:00Z,29.2533,-90.6633,1.0,2.6,170.0,,'1111122,1111122,1111122' 
LUMCON,ioos:station:LUMCON:101:1,2011-07-06T22:00:00Z,29.2533,-90.6633,1.0,2.6,330.0,,'1111122,1111122,1111122' 
LUMCON,ioos:station:LUMCON:101:1,2011-07-06T23:00:00Z,29.2533,-90.6633,1.0,5.7,330.0,,'1111122,1111122,1111122' 
LUMCON,ioos:station:LUMCON:101:1,2011-07-07T00:00:00Z,29.2533,-90.6633,1.0,1.5,340.0,,'1111122,1111122,1111122' 
LUMCON,ioos:station:LUMCON:101:1,2011-07-07T01:00:00Z,29.2533,-90.6633,1.0,2.1,340.0,,'1111122,1111122,1111122' 
LUMCON,ioos:station:LUMCON:101:1,2011-07-07T02:00:00Z,29.2533,-90.6633,1.0,1.5,40.0,,'1111122,1111122,1111122' 
LUMCON,ioos:station:LUMCON:101:1,2011-07-07T03:00:00Z,29.2533,-90.6633,1.0,1.5,70.0,,'1111122,1111122,1111122' 
LUMCON,ioos:station:LUMCON:101:1,2011-07-07T04:00:00Z,29.2533,-90.6633,1.0,2.1,40.0,,'1111122,1111122,1111122' 
LUMCON,ioos:station:LUMCON:101:1,2011-07-07T05:00:00Z,29.2533,-90.6633,1.0,1.5,20.0,,'1111122,1111122,1111122' 
LUMCON,ioos:station:LUMCON:101:1,2011-07-07T06:00:00Z,29.2533,-90.6633,1.0,1.5,20.0,,'1111122,1111122,1111122' 
LUMCON,ioos:station:LUMCON:101:1,2011-07-07T07:00:00Z,29.2533,-90.6633,1.0,1.5,20.0,,'1111122,1111122,1111122' 
LUMCON,ioos:station:LUMCON:101:1,2011-07-07T08:00:00Z,29.2533,-90.6633,1.0,1.0,310.0,,'1111122,1111122,1111122' 
LUMCON,ioos:station:LUMCON:101:1,2011-07-07T09:00:00Z,29.2533,-90.6633,1.0,1.0,340.0,,'1111122,1111122,1111122' 
LUMCON,ioos:station:LUMCON:101:1,2011-07-07T10:00:00Z,29.2533,-90.6633,1.0,0.5,360.0,,'1111122,1111122,1111122' 
LUMCON,ioos:station:LUMCON:101:1,2011-07-07T11:00:00Z,29.2533,-90.6633,1.0,1.5,10.0,,'1111122,1111122,1111122' 
LUMCON,ioos:station:LUMCON:101:1,2011-07-07T12:00:00Z,29.2533,-90.6633,1.0,1.5,50.0,,'1111122,1111122,1111122' 
LUMCON,ioos:station:LUMCON:101:1,2011-07-07T13:00:00Z,29.2533,-90.6633,1.0,1.0,50.0,,'1111122,1111122,1111122' 
LUMCON,ioos:station:LUMCON:101:1,2011-07-07T14:00:00Z,29.2533,-90.6633,1.0,1.5,310.0,,'1111122,1111122,1111122' 
LUMCON,ioos:station:LUMCON:101:1,2011-07-07T15:00:00Z,29.2533,-90.6633,1.0,2.6,340.0,,'1111122,1111122,1111122' 
LUMCON,ioos:station:LUMCON:101:1,2011-07-07T16:00:00Z,29.2533,-90.6633,1.0,2.6,360.0,,'1111122,1111122,1111122' 
LUMCON,ioos:station:LUMCON:101:1,2011-07-07T17:00:00Z,29.2533,-90.6633,1.0,1.5,120.0,,'1111122,1111122,1111122' 
LUMCON,ioos:station:LUMCON:101:1,2011-07-07T18:00:00Z,29.2533,-90.6633,1.0,2.6,150.0,,'1111122,1111122,1111122' 
LUMCON,ioos:station:LUMCON:101:1,2011-07-07T20:00:00Z,29.2533,-90.6633,1.0,4.1,150.0,,'1111122,1111122,1111122' 
LUMCON,ioos:station:LUMCON:101:1,2011-07-07T21:00:00Z,29.2533,-90.6633,1.0,7.2,320.0,,'1111122,1111122,1111122' 
LUMCON,ioos:station:LUMCON:101:1,2011-07-07T22:00:00Z,29.2533,-90.6633,1.0,4.6,210.0,,'1111122,1111122,1111122' 
LUMCON,ioos:station:LUMCON:101:1,2011-07-07T23:00:00Z,29.2533,-90.6633,1.0,3.6,210.0,,'1111122,1111122,1111122' 
LUMCON,ioos:station:LUMCON:101:1,2011-07-08T00:00:00Z,29.2533,-90.6633,1.0,3.1,230.0,,'1111122,1111122,1111122' 
LUMCON,ioos:station:LUMCON:101:1,2011-07-08T01:00:00Z,29.2533,-90.6633,1.0,3.6,210.0,,'1111122,1111122,1111122' 
LUMCON,ioos:station:LUMCON:101:1,2011-07-08T02:00:00Z,29.2533,-90.6633,1.0,2.6,210.0,,'1111122,1111122,1111122' 
LUMCON,ioos:station:LUMCON:101:1,2011-07-08T03:00:00Z,29.2533,-90.6633,1.0,2.6,220.0,,'1111122,1111122,1111122' 
LUMCON,ioos:station:LUMCON:101:1,2011-07-08T04:00:00Z,29.2533,-90.6633,1.0,2.1,220.0,,'1111122,1111122,1111122' 
LUMCON,ioos:station:LUMCON:101:1,2011-07-08T05:00:00Z,29.2533,-90.6633,1.0,1.5,230.0,,'1111122,1111122,1111122' 
LUMCON,ioos:station:LUMCON:101:1,2011-07-08T06:00:00Z,29.2533,-90.6633,1.0,2.1,220.0,,'1111122,1111122,1111122' 
LUMCON,ioos:station:LUMCON:101:1,2011-07-08T07:00:00Z,29.2533,-90.6633,1.0,2.1,250.0,,'1111122,1111122,1111122' 
LUMCON,ioos:station:LUMCON:101:1,2011-07-08T08:00:00Z,29.2533,-90.6633,1.0,2.1,240.0,,'1111122,1111122,1111122' 
LUMCON,ioos:station:LUMCON:101:1,2011-07-08T09:00:00Z,29.2533,-90.6633,1.0,2.1,220.0,,'1111122,1111122,1111122' 
LUMCON,ioos:station:LUMCON:101:1,2011-07-08T10:00:00Z,29.2533,-90.6633,1.0,2.1,260.0,,'1111122,1111122,1111122' 
LUMCON,ioos:station:LUMCON:101:1,2011-07-08T11:00:00Z,29.2533,-90.6633,1.0,1.5,280.0,,'1111122,1111122,1111122' 
LUMCON,ioos:station:LUMCON:101:1,2011-07-08T12:00:00Z,29.2533,-90.6633,1.0,3.1,230.0,,'1111122,1111122,1111122' 
LUMCON,ioos:station:LUMCON:101:1,2011-07-08T13:00:00Z,29.2533,-90.6633,1.0,2.6,280.0,,'1111122,1111122,1111122' 
LUMCON,ioos:station:LUMCON:101:1,2011-07-08T14:00:00Z,29.2533,-90.6633,1.0,3.6,280.0,,'1111122,1111122,1111122' 
LUMCON,ioos:station:LUMCON:101:1,2011-07-08T15:00:00Z,29.2533,-90.6633,1.0,3.1,300.0,,'1111122,1111122,1111122' 
LUMCON,ioos:station:LUMCON:101:1,2011-07-08T16:00:00Z,29.2533,-90.6633,1.0,2.1,300.0,,'1111122,1111122,1111122' 
LUMCON,ioos:station:LUMCON:101:1,2011-07-08T17:00:00Z,29.2533,-90.6633,1.0,3.1,230.0,,'1111122,1111122,1111122' 
LUMCON,ioos:station:LUMCON:101:1,2011-07-08T18:00:00Z,29.2533,-90.6633,1.0,3.6,230.0,,'1111122,1111122,1111122' 
LUMCON,ioos:station:LUMCON:101:1,2011-07-08T19:00:00Z,29.2533,-90.6633,1.0,3.1,230.0,,'1111122,1111122,1111122' 
LUMCON,ioos:station:LUMCON:101:1,2011-07-08T20:00:00Z,29.2533,-90.6633,1.0,4.1,210.0,,'1111122,1111122,1111122' 
LUMCON,ioos:station:LUMCON:101:1,2011-07-08T21:00:00Z,29.2533,-90.6633,1.0,4.1,230.0,,'1111122,1111122,1111122' 
LUMCON,ioos:station:LUMCON:101:1,2011-07-08T22:00:00Z,29.2533,-90.6633,1.0,4.6,220.0,,'1111122,1111122,1111122' 
LUMCON,ioos:station:LUMCON:101:1,2011-07-08T23:00:00Z,29.2533,-90.6633,1.0,4.1,240.0,,'1111122,1111122,1111122' 
LUMCON,ioos:station:LUMCON:101:1,2011-07-09T00:00:00Z,29.2533,-90.6633,1.0,5.1,260.0,,'1111122,1111122,1111122' 
LUMCON,ioos:station:LUMCON:101:1,2011-07-09T01:00:00Z,29.2533,-90.6633,1.0,3.1,240.0,,'1111122,1111122,1111122' 
LUMCON,ioos:station:LUMCON:101:1,2011-07-09T02:00:00Z,29.2533,-90.6633,1.0,3.6,220.0,,'1111122,1111122,1111122' 
LUMCON,ioos:station:LUMCON:101:1,2011-07-09T03:00:00Z,29.2533,-90.6633,1.0,2.1,260.0,,'1111122,1111122,1111122' 
LUMCON,ioos:station:LUMCON:101:1,2011-07-09T04:00:00Z,29.2533,-90.6633,1.0,2.1,240.0,,'1111122,1111122,1111122' 
LUMCON,ioos:station:LUMCON:101:1,2011-07-09T05:00:00Z,29.2533,-90.6633,1.0,2.1,240.0,,'1111122,1111122,1111122' 
LUMCON,ioos:station:LUMCON:101:1,2011-07-09T06:00:00Z,29.2533,-90.6633,1.0,3.6,230.0,,'1111122,1111122,1111122' 
LUMCON,ioos:station:LUMCON:101:1,2011-07-09T07:00:00Z,29.2533,-90.6633,1.0,3.1,220.0,,'1111122,1111122,1111122' 
LUMCON,ioos:station:LUMCON:101:1,2011-07-09T08:00:00Z,29.2533,-90.6633,1.0,3.1,220.0,,'1111122,1111122,1111122' 
LUMCON,ioos:station:LUMCON:101:1,2011-07-09T09:00:00Z,29.2533,-90.6633,1.0,2.6,240.0,,'1111122,1111122,1111122' 
LUMCON,ioos:station:LUMCON:101:1,2011-07-09T10:00:00Z,29.2533,-90.6633,1.0,2.1,250.0,,'1111122,1111122,1111122' 
LUMCON,ioos:station:LUMCON:101:1,2011-07-09T11:00:00Z,29.2533,-90.6633,1.0,3.1,220.0,,'1111122,1111122,1111122' 
LUMCON,ioos:station:LUMCON:101:1,2011-07-09T12:00:00Z,29.2533,-90.6633,1.0,3.1,240.0,,'1111122,1111122,1111122' 
LUMCON,ioos:station:LUMCON:101:1,2011-07-09T13:00:00Z,29.2533,-90.6633,1.0,4.1,240.0,,'1111122,1111122,1111122' 
LUMCON,ioos:station:LUMCON:101:1,2011-07-09T14:00:00Z,29.2533,-90.6633,1.0,4.1,220.0,,'1111122,1111122,1111122' 
LUMCON,ioos:station:LUMCON:101:1,2011-07-09T15:00:00Z,29.2533,-90.6633,1.0,4.1,210.0,,'1111122,1111122,1111122' 
LUMCON,ioos:station:LUMCON:101:1,2011-07-09T16:00:00Z,29.2533,-90.6633,1.0,3.6,220.0,,'1111122,1111122,1111122' 
LUMCON,ioos:station:LUMCON:101:1,2011-07-09T17:00:00Z,29.2533,-90.6633,1.0,2.6,250.0,,'1111122,1111122,1111122' 
LUMCON,ioos:station:LUMCON:101:1,2011-07-09T18:00:00Z,29.2533,-90.6633,1.0,3.6,190.0,,'1111122,1111122,1111122' 
LUMCON,ioos:station:LUMCON:101:1,2011-07-09T19:00:00Z,29.2533,-90.6633,1.0,3.1,220.0,,'1111122,1111122,1111122' 
LUMCON,ioos:station:LUMCON:101:1,2011-07-09T20:00:00Z,29.2533,-90.6633,1.0,5.7,200.0,,'1111122,1111122,1111122' 
LUMCON,ioos:station:LUMCON:101:1,2011-07-09T21:00:00Z,29.2533,-90.6633,1.0,4.6,200.0,,'1111122,1111122,1111122' 